Wind_Speed
18 19 19 18 16 16 16 17 18 18 17 17 16 16 16 16 17 18 19 20 20 20 21 20 20 19 18 19 21 23 25 26 27 26 25 24 24 24 25 26 27 27 28 28 27 26 26 26 27 27 27 26 26 24 24 23 22 21 20 19 19 19 19 19 19 19 19 18 17 16 15 14 13 13 12 11 11 10 9 9 8 8 7 6 5
18 19 18 16 15 15 17 18 18 17 16 16 15 14 15 15 16 17 18 19 19 19 19 19 19 18 18 18 19 22 24 26 26 26 27 25 23 23 23 25 26 28 29 29 29 28 27 27 27 27 27 27 27 27 26 25 24 23 22 21 21 21 20 20 20 20 19 19 18 17 16 15 14 14 13 12 12 11 11 11 10 10 9 9 8
19 18 16 15 15 16 18 18 17 16 16 16 14 13 14 14 15 16 17 17 18 18 18 18 18 18 17 18 19 21 23 24 24 26 28 27 26 24 23 23 25 27 29 30 30 30 29 28 28 28 27 27 28 28 28 27 27 26 24 23 23 22 22 21 21 21 20 19 18 17 16 16 15 15 14 14 14 13 13 13 12 12 12 11 10
19 18 16 15 15 16 17 17 16 16 15 15 14 13 14 14 14 15 16 17 18 18 19 18 18 17 17 17 19 20 21 23 24 26 28 29 28 27 25 25 25 27 29 31 31 31 30 30 29 28 27 27 27 28 28 29 29 28 26 25 24 24 23 23 23 22 21 20 19 18 17 17 17 16 16 16 16 15 15 15 15 14 14 13 13
19 17 16 15 16 16 16 16 15 14 14 14 15 14 14 14 15 16 17 18 18 18 17 18 17 17 16 17 18 19 21 23 24 26 27 28 29 28 28 27 26 27 29 30 31 31 30 30 30 28 27 27 27 27 27 28 29 30 29 28 26 25 25 25 24 24 23 22 21 19 19 18 18 18 18 18 17 17 17 16 16 17 17 16 15
18 16 16 15 15 15 15 16 15 14 14 15 15 15 15 15 15 16 18 17 17 17 17 17 17 17 16 16 17 18 20 22 24 25 26 27 28 28 29 29 28 28 27 28 29 30 30 31 31 30 28 27 27 26 26 27 28 30 30 30 29 28 26 26 26 26 25 24 23 22 21 20 20 20 20 20 19 19 19 19 19 19 19 19 18
17 17 16 14 15 15 15 16 16 15 15 15 16 15 15 16 16 17 18 17 17 18 18 18 17 17 16 16 16 16 17 19 21 24 25 26 27 28 29 29 29 28 27 27 28 29 29 30 31 31 30 29 28 27 27 27 27 29 30 31 31 30 29 28 28 27 27 26 26 25 23 23 22 22 22 22 21 21 20 21 21 21 21 20 19
16 16 16 14 14 15 15 16 17 17 17 17 16 16 16 16 16 17 18 18 18 18 19 19 18 17 17 16 15 15 16 17 18 21 23 25 26 27 29 30 29 29 29 28 28 29 29 30 31 32 32 31 30 30 28 27 27 28 29 31 32 32 31 30 29 29 29 29 28 27 26 25 25 24 24 24 23 23 22 21 21 21 21 20 19
15 15 15 14 14 14 15 16 18 18 18 18 18 17 17 17 16 16 17 18 18 19 19 18 18 17 17 16 15 15 15 15 16 18 21 23 24 25 27 29 29 30 29 29 28 28 28 29 30 31 32 32 32 32 31 29 28 28 28 29 31 32 32 32 31 31 31 31 31 30 29 28 27 26 26 25 25 24 23 22 21 21 21 20 20
15 14 14 14 13 13 15 16 17 18 18 18 19 18 18 17 16 16 17 18 18 18 18 18 17 16 16 15 15 15 15 16 16 17 19 21 22 24 26 27 28 29 29 29 28 28 28 28 29 30 31 32 32 33 32 31 30 29 29 29 30 31 32 32 32 32 33 33 33 32 31 30 29 28 27 27 26 25 24 23 22 21 21 21 21
15 14 14 14 13 14 14 15 16 17 18 18 18 18 17 16 16 16 17 17 17 17 17 16 16 16 15 16 16 16 16 17 17 17 18 19 20 22 24 26 26 27 27 28 29 29 28 28 28 28 29 30 32 33 33 33 32 31 30 30 29 29 30 31 32 33 34 35 35 34 33 32 31 29 28 28 28 27 25 24 23 23 23 23 23
15 14 13 13 14 15 15 15 16 17 17 18 18 18 18 17 16 17 17 17 17 17 16 16 16 16 16 16 17 16 16 18 18 18 18 18 19 20 22 23 25 25 26 28 29 29 28 28 28 28 28 29 30 32 34 34 35 34 33 32 31 29 29 30 30 32 34 35 35 35 34 34 32 30 30 30 29 28 27 25 24 24 24 24 25
15 15 14 13 14 15 16 16 16 17 18 18 18 18 18 18 17 18 18 18 17 16 16 16 17 17 17 17 16 16 17 18 19 19 19 18 19 20 20 21 23 24 25 27 29 29 29 28 28 29 29 30 30 31 32 34 36 36 35 34 32 30 29 29 29 30 32 34 35 35 34 34 32 31 30 30 30 29 28 26 25 25 25 26 27
15 15 15 14 14 15 16 16 17 18 18 19 19 19 19 19 19 20 20 18 16 17 17 18 18 18 18 17 17 17 17 18 19 20 19 19 18 19 20 20 21 23 24 26 27 28 30 28 26 27 28 28 30 31 31 33 35 37 37 36 34 32 30 29 29 30 31 32 34 34 33 32 31 30 29 29 30 29 28 27 26 26 26 27 27
15 15 15 15 15 15 16 17 17 18 18 19 20 20 21 21 21 21 21 19 18 19 19 18 19 19 19 18 18 18 18 18 19 19 20 19 18 18 18 18 19 21 23 24 25 27 30 30 28 28 28 28 29 29 30 30 33 35 37 38 36 33 31 30 31 31 30 29 30 32 32 32 31 30 30 29 28 28 27 26 26 27 27 27 27
15 15 16 16 16 16 16 17 17 18 19 19 20 21 22 22 22 23 23 21 20 21 20 19 19 20 20 19 19 19 19 19 19 20 20 20 19 17 16 16 17 19 19 20 20 23 27 29 29 29 29 29 28 28 28 28 30 31 34 37 37 35 33 32 32 31 28 27 28 29 30 30 31 31 30 29 28 28 27 27 27 27 27 27 26
15 15 16 16 17 17 17 17 18 18 19 20 21 21 22 23 23 24 24 23 22 23 22 21 20 19 19 19 19 19 19 19 20 20 20 20 20 19 17 17 17 18 18 18 18 20 22 24 26 27 26 25 24 25 25 24 27 29 32 35 37 35 33 32 32 31 29 27 27 28 29 29 30 30 30 29 28 28 28 28 28 27 27 26 26
16 15 16 16 17 18 18 18 18 19 19 20 21 22 22 23 24 25 25 25 25 25 24 23 21 20 20 20 20 20 20 20 21 21 21 21 21 20 19 18 18 18 18 19 20 20 20 22 24 25 23 22 21 22 22 22 26 29 31 34 36 35 34 33 33 32 30 28 27 27 28 29 30 30 30 29 28 27 28 28 28 28 27 26 25
17 16 16 17 17 18 18 19 19 19 19 19 20 21 22 23 23 24 25 25 26 25 25 25 24 22 22 22 21 21 21 21 21 21 21 21 21 20 21 20 20 19 19 20 21 21 21 22 22 23 22 21 20 20 22 24 26 27 27 30 35 37 36 36 35 33 31 29 28 28 28 29 30 30 29 29 28 28 28 29 29 29 29 27 27
19 18 17 17 17 18 18 19 19 19 19 19 19 20 20 21 22 23 23 24 25 25 25 25 24 23 23 23 22 22 22 22 21 21 22 22 21 20 21 21 21 21 21 20 20 20 20 20 21 22 22 20 20 21 22 23 23 23 24 27 33 37 38 38 37 35 33 31 30 30 30 30 29 29 28 27 27 28 28 29 29 29 28 27 27
20 19 18 17 17 18 19 19 19 19 19 19 19 19 19 19 20 20 21 22 23 23 23 23 23 23 23 24 23 22 22 22 22 22 22 23 23 22 21 21 22 22 22 22 21 20 20 20 20 20 20 18 19 21 22 21 20 21 22 24 27 32 37 39 38 37 34 32 31 31 32 31 30 30 29 28 28 28 29 29 29 28 27 26 26
18 19 18 18 17 18 19 19 20 20 20 19 19 19 19 19 19 19 20 21 22 22 22 22 22 22 23 24 24 24 24 23 24 24 23 24 24 24 24 22 22 23 23 23 23 23 22 22 22 20 18 18 18 20 21 20 20 20 20 22 24 27 32 36 38 38 36 35 33 32 33 32 32 32 30 30 30 29 29 30 29 29 28 28 28
17 18 18 17 17 18 18 19 20 20 20 20 19 19 19 19 19 19 19 20 20 21 21 21 22 21 22 22 23 24 24 25 25 25 24 25 25 25 25 24 24 24 24 24 24 24 24 24 24 23 22 20 19 19 20 20 20 20 20 23 24 25 27 29 33 35 37 38 38 37 36 35 34 33 32 32 33 32 31 31 30 30 30 31 31
16 18 18 17 16 17 17 18 18 18 19 19 18 18 18 19 18 18 18 19 19 20 20 20 21 21 21 21 22 23 24 25 25 24 23 24 25 25 25 26 27 27 26 25 25 24 23 23 23 24 25 24 21 21 21 21 21 21 22 24 25 24 24 26 28 31 33 37 40 41 41 40 39 37 35 35 35 34 33 32 32 31 31 32 32
16 17 17 16 15 16 16 17 17 16 16 16 16 17 17 17 18 18 18 19 19 18 18 18 18 19 19 19 20 21 23 24 24 24 24 24 24 25 26 27 27 27 26 27 27 27 26 25 25 26 26 27 26 25 25 25 25 24 24 25 26 25 26 26 27 28 30 32 35 38 41 43 44 42 41 40 38 37 36 35 35 34 33 32 31
15 16 16 15 14 14 15 15 16 15 15 15 15 15 15 16 16 17 17 18 18 18 18 17 17 16 16 17 18 19 21 22 23 24 25 25 25 26 27 27 27 26 25 26 28 29 30 29 29 30 30 31 30 30 29 28 28 28 28 28 28 28 28 28 28 28 28 28 29 32 35 38 41 42 42 41 40 39 38 37 38 38 36 35 34
15 16 16 15 14 14 14 14 14 14 14 14 14 14 15 15 15 15 16 16 17 17 17 17 17 16 16 15 16 17 18 20 21 22 23 24 25 26 27 28 29 29 28 28 28 29 30 31 31 31 32 32 32 31 30 30 31 31 31 31 30 30 30 29 29 29 28 27 26 27 29 30 32 35 36 37 37 37 38 38 38 38 38 38 38
14 15 15 15 15 14 14 14 14 14 14 14 14 15 15 15 15 15 15 15 15 16 16 16 16 15 15 15 15 16 16 17 18 20 21 22 23 24 24 26 27 28 28 28 28 28 29 30 30 30 31 31 31 31 30 30 31 32 32 32 31 31 31 30 30 29 29 28 27 27 28 29 30 31 32 33 33 35 37 39 40 40 40 40 40
14 14 15 15 15 15 15 14 14 14 14 14 15 15 15 16 16 16 16 16 16 15 15 15 15 14 14 14 14 14 15 16 16 17 18 19 20 21 21 22 23 24 25 25 25 26 26 27 28 29 29 29 29 29 29 29 30 30 31 31 31 31 31 30 30 29 29 29 29 29 30 30 31 31 31 31 31 31 32 35 38 39 41 41 41
14 15 15 16 15 15 15 15 15 15 15 15 15 15 15 16 16 17 17 17 17 16 16 16 15 15 14 14 14 13 14 14 15 16 16 17 18 19 19 19 20 20 20 21 21 22 23 23 24 25 26 26 26 26 27 27 27 28 28 29 29 29 29 29 29 28 28 29 29 29 29 29 30 30 29 30 30 30 30 31 33 35 37 38 39
15 15 14 14 15 15 15 15 15 15 15 14 14 14 15 15 16 16 16 16 16 16 16 16 15 15 15 14 14 14 14 14 14 15 15 16 17 18 18 18 18 18 18 18 18 18 19 20 20 21 22 23 23 22 23 23 24 24 25 25 26 26 27 27 27 27 27 27 27 27 28 28 28 28 28 28 29 29 29 30 31 33 35 36 36
17 16 13 13 13 14 14 14 15 15 15 14 13 13 13 14 14 14 14 13 13 13 13 13 14 14 14 14 14 14 14 15 15 15 16 16 17 17 17 18 18 18 17 17 16 16 16 17 17 18 18 19 19 19 19 19 20 21 21 21 22 23 23 24 24 24 24 25 25 25 26 26 27 27 27 26 26 26 25 25 26 27 29 31 32
17 16 14 13 14 14 14 14 14 14 14 14 13 13 12 12 13 12 12 12 11 11 11 12 13 14 14 14 14 14 14 14 15 16 16 17 18 18 18 18 18 18 18 18 17 16 16 17 17 17 17 17 18 18 18 18 18 18 19 19 20 20 20 21 21 21 21 22 23 23 24 24 25 26 26 25 24 24 23 22 22 22 23 24 25
16 16 17 17 17 16 16 14 13 13 13 13 13 12 12 12 12 13 13 12 12 11 11 11 12 13 14 15 16 16 15 15 15 15 16 17 18 18 19 19 19 19 19 19 19 18 18 18 18 18 18 18 18 19 19 19 19 18 19 19 20 20 20 20 20 20 20 20 21 22 22 23 23 24 24 24 24 24 24 23 23 23 23 23 24
17 18 20 20 20 19 18 16 14 13 13 14 14 14 14 13 14 14 15 14 14 13 13 13 13 13 13 14 15 16 17 17 17 17 17 18 18 19 20 20 20 21 21 21 21 20 20 19 20 20 20 19 20 20 20 20 21 20 20 20 21 21 22 22 22 21 21 21 21 22 22 23 24 24 25 25 25 25 25 25 25 25 25 25 25
19 20 21 21 20 19 19 18 17 17 18 18 19 19 19 18 17 17 17 17 16 16 16 16 16 16 16 16 16 17 18 18 19 19 19 19 19 19 20 21 22 22 23 23 23 23 23 22 22 22 22 21 21 22 22 22 22 22 23 23 23 23 23 24 24 24 24 24 24 24 24 24 25 25 26 26 27 27 27 28 28 28 28 28 28
19 19 20 20 20 20 20 20 21 22 23 24 23 23 23 22 20 20 20 20 19 19 19 19 19 19 19 19 19 19 19 20 21 21 21 21 21 21 21 21 22 23 24 24 24 24 25 25 24 24 25 24 24 24 24 25 25 25 25 25 25 25 25 26 26 25 25 26 26 26 26 26 26 27 27 28 28 29 29 29 30 30 30 30 30
17 18 20 20 21 22 22 22 23 22 22 22 23 23 21 19 18 19 20 20 19 19 18 19 21 21 19 19 19 20 20 21 22 22 23 23 23 23 23 23 24 24 24 25 25 25 26 26 26 26 26 26 26 26 26 26 26 26 26 27 26 26 26 27 27 27 26 26 26 26 26 27 27 27 28 28 29 29 29 30 31 31 31 32 32
20 23 24 22 21 21 22 23 23 21 20 20 21 21 20 18 17 19 20 20 20 20 19 21 23 24 22 22 22 22 22 23 24 24 24 24 25 25 25 26 26 27 27 27 27 27 27 27 27 27 27 27 27 27 27 27 27 27 27 27 27 27 27 27 27 27 27 27 26 26 27 27 28 28 28 29 29 29 29 30 30 30 31 32 32
26 26 25 23 22 23 24 25 24 24 24 25 25 24 24 23 23 23 24 24 24 24 24 25 27 27 27 26 26 27 27 28 28 28 27 27 27 27 27 28 29 30 30 30 30 30 30 30 30 30 30 29 29 29 28 28 28 28 28 29 29 29 29 30 29 29 29 28 28 28 28 28 29 30 30 31 31 31 31 31 31 31 31 31 32
27 26 24 23 24 25 25 26 27 28 29 30 30 30 30 30 29 28 29 29 29 29 29 29 30 30 28 28 29 31 31 31 32 31 31 30 30 30 30 30 31 32 33 33 34 34 34 34 34 33 33 33 33 32 32 32 31 31 32 32 31 31 31 32 33 33 32 31 30 30 31 31 31 32 33 33 34 34 34 34 34 35 35 34 34
27 26 25 25 27 27 27 27 27 29 31 31 31 32 32 32 31 31 32 32 32 32 32 31 32 31 29 28 31 33 34 35 36 36 36 35 34 34 34 33 33 33 34 35 36 37 38 38 37 37 37 37 36 36 36 36 35 35 36 36 35 35 35 35 36 37 37 35 34 35 36 36 34 35 37 37 38 38 38 38 38 39 39 38 38
28 28 29 30 31 31 31 31 30 32 33 32 32 33 33 34 35 35 33 32 31 31 31 32 32 33 32 32 33 36 37 38 40 41 41 40 40 40 39 39 39 38 38 38 38 39 40 41 41 41 41 41 41 40 40 40 40 40 40 40 40 40 40 40 40 42 42 41 39 40 42 43 41 40 41 43 43 43 43 43 43 44 44 43 43
32 32 33 35 34 34 34 34 33 33 34 34 35 36 37 37 36 33 32 31 31 31 32 32 33 33 34 35 36 37 38 40 41 42 42 43 44 44 44 44 43 43 42 42 42 42 42 43 44 44 45 45 45 44 44 44 44 44 44 44 44 44 44 44 44 45 47 47 45 44 46 48 47 45 46 48 49 49 49 49 49 49 49 48 48
35 35 35 36 36 36 35 34 34 34 34 35 36 36 36 35 33 32 32 32 33 33 33 34 34 35 36 37 38 39 40 40 41 43 43 44 45 45 45 46 46 46 46 45 45 45 45 45 47 47 48 48 48 48 48 47 47 47 47 48 48 48 48 48 48 49 50 51 50 49 50 52 52 51 52 53 54 54 54 54 54 54 54 54 53
37 37 37 37 37 36 34 34 34 35 36 36 36 36 36 35 35 35 35 35 34 35 35 36 36 37 38 39 40 41 41 42 43 44 45 46 47 46 46 46 47 47 47 48 48 47 47 48 50 51 52 52 53 54 54 54 53 53 53 54 54 54 54 53 54 54 55 56 55 55 56 58 59 59 59 59 59 59 59 59 59 59 59 58 58
39 39 38 37 37 36 36 37 37 38 38 39 39 38 38 38 38 37 37 37 37 37 37 38 39 39 40 40 41 42 43 44 44 45 46 47 48 48 48 48 48 48 49 49 49 48 48 50 52 54 55 56 57 58 59 60 60 60 61 61 61 61 61 61 61 62 63 64 64 64 64 64 64 64 63 63 63 63 63 63 64 63 63 63 62
41 40 39 39 39 39 40 41 42 41 41 41 41 41 40 40 40 39 39 39 39 40 41 42 43 42 42 41 41 42 43 44 45 46 47 47 48 48 49 49 49 50 50 50 50 49 50 51 53 55 56 57 58 59 60 61 62 63 63 63 64 64 63 64 64 65 66 67 68 68 67 66 66 65 64 64 64 64 65 66 67 67 67 66 66
43 43 42 42 43 43 43 44 44 43 43 42 42 42 42 41 41 41 41 41 43 44 46 46 46 45 44 43 42 42 43 44 45 46 47 47 48 48 49 49 50 50 50 50 50 51 51 52 53 55 56 57 58 60 61 61 62 63 63 64 64 64 64 65 64 64 65 66 67 68 67 66 67 66 65 64 65 65 66 67 68 68 68 68 68
45 44 44 45 45 45 45 44 44 43 42 42 42 42 42 42 42 42 44 45 47 48 48 48 48 47 47 46 46 45 45 45 46 46 46 47 47 48 48 49 49 50 50 49 50 50 50 51 52 54 55 56 58 59 61 62 63 64 64 65 65 66 66 66 66 66 66 66 67 68 67 67 67 67 67 65 65 65 67 68 68 69 69 69 69
44 43 43 44 44 45 45 44 44 43 43 42 42 42 43 43 43 45 47 48 49 49 48 48 47 48 48 48 48 48 47 47 47 46 46 46 47 47 47 48 48 48 48 48 48 48 49 50 51 52 54 55 57 58 60 61 62 63 64 65 66 66 67 67 67 67 67 66 68 69 68 68 68 68 68 68 67 66 67 68 68 69 69 69 70
Wind_Direction
268 265 260 257 256 257 258 254 254 254 250 248 246 243 241 242 244 245 247 249 250 251 254 255 253 249 243 240 236 234 234 234 234 236 239 244 247 246 242 239 239 241 244 247 249 250 252 253 254 253 251 250 251 251 251 251 250 249 248 248 249 250 248 246 245 245 246 247 246 245 244 244 245 245 246 249 253 258 264 270 276 280 284 287 290
263 261 259 258 254 252 251 247 248 252 252 250 246 241 240 239 240 244 247 249 251 250 251 253 254 251 246 242 239 238 236 231 229 233 238 242 245 245 243 242 240 241 244 246 248 249 251 252 253 254 253 252 251 251 251 251 251 251 250 249 250 250 250 249 248 246 246 248 248 247 246 245 246 247 249 251 254 258 262 266 271 275 278 280 282
263 260 259 257 253 251 250 246 247 249 249 249 244 235 234 234 236 241 246 250 252 252 250 249 250 250 247 242 239 242 243 235 229 232 236 239 242 242 241 241 240 241 243 246 248 250 251 252 252 253 254 254 253 253 252 253 253 253 253 252 252 252 252 252 251 250 248 248 248 248 248 247 247 248 250 253 257 260 263 265 268 271 274 277 279
265 262 260 257 253 252 252 250 249 249 247 245 243 235 233 236 237 241 246 249 251 252 253 251 249 248 247 245 241 241 243 240 236 238 238 240 242 243 242 241 240 240 241 243 246 248 251 252 252 252 254 256 256 255 255 254 255 255 255 253 253 254 255 255 254 253 252 250 249 249 248 249 249 249 251 253 257 261 264 266 268 271 273 274 276
267 266 263 260 257 255 257 256 253 250 245 242 242 238 234 238 242 246 249 250 251 253 254 254 252 250 248 247 245 241 240 239 240 242 243 243 245 246 245 243 242 243 241 239 242 245 248 251 252 252 253 255 256 257 256 255 255 255 255 255 254 254 255 257 257 256 255 253 252 250 249 249 250 251 253 254 258 261 264 267 271 273 275 275 275
270 270 268 265 262 259 257 256 254 250 243 240 239 237 235 237 241 247 251 253 256 257 258 258 255 254 251 248 247 245 242 241 240 242 244 245 247 248 247 245 245 247 245 241 240 243 245 247 249 250 251 253 254 256 256 256 256 255 255 254 254 253 253 255 257 258 257 256 255 253 250 249 250 252 254 256 258 262 265 269 272 275 276 277 277
270 269 266 264 260 257 254 252 251 248 243 241 241 240 239 238 240 245 250 253 257 260 262 262 259 256 253 250 248 247 246 244 242 243 244 245 247 248 248 247 247 249 249 246 244 244 244 245 246 247 248 249 251 253 255 256 256 255 254 253 253 253 252 252 254 257 258 257 256 255 253 251 252 253 255 258 260 263 267 270 273 275 276 277 278
270 268 265 263 258 256 253 250 248 247 245 243 243 242 242 243 245 247 251 252 254 258 261 262 260 257 254 252 250 249 248 246 244 244 244 245 247 248 248 249 249 250 250 250 250 249 248 247 246 245 246 247 248 250 252 254 255 255 255 254 253 253 252 251 251 253 255 256 257 256 255 254 254 255 257 259 262 264 267 270 272 273 274 275 278
268 266 265 263 260 258 256 252 248 246 245 245 245 244 244 245 248 250 252 252 253 256 259 260 259 256 255 252 249 249 250 248 247 246 246 246 247 249 249 249 250 249 250 251 252 252 251 249 249 247 246 247 247 248 250 252 254 256 256 256 255 254 254 253 252 251 252 254 255 256 256 256 256 257 258 261 264 266 268 269 270 269 269 271 276
269 266 265 264 262 259 256 252 248 245 245 245 246 247 246 246 248 250 252 251 253 255 257 259 255 252 251 250 248 249 250 250 250 249 250 250 249 248 249 249 249 248 248 249 251 252 252 251 252 251 249 248 248 247 248 250 252 254 256 257 257 256 256 256 255 253 252 253 254 255 256 258 258 259 259 261 264 267 269 269 268 266 265 268 272
269 267 265 265 264 261 255 251 249 246 246 247 247 247 247 247 248 250 252 252 251 252 255 256 252 246 245 248 252 252 251 252 252 252 253 254 254 252 249 247 247 247 247 248 250 251 252 253 254 255 254 253 251 249 248 248 251 253 254 256 257 258 258 257 257 256 255 254 255 255 256 258 259 260 260 261 264 267 269 269 269 267 267 268 271
268 268 264 263 262 261 259 255 251 249 248 248 249 249 248 247 248 251 254 253 252 254 256 256 252 247 246 248 251 251 251 252 254 254 255 256 258 259 255 249 246 246 246 246 248 250 252 253 255 257 258 257 256 253 251 250 249 250 252 254 255 257 258 259 259 258 257 256 256 256 256 258 260 261 260 262 264 267 268 269 269 269 270 271 273
268 268 266 262 259 259 259 257 253 251 251 251 251 250 248 247 248 251 254 257 258 259 260 259 256 254 253 252 251 249 249 252 257 259 259 260 261 263 261 254 248 247 246 246 247 249 251 252 254 255 255 257 257 256 255 253 251 250 250 251 253 255 257 259 259 258 257 256 255 255 255 257 260 262 261 262 264 266 267 267 268 269 271 272 273
268 267 266 264 260 258 257 256 254 253 252 252 252 252 250 250 250 253 258 262 264 262 261 260 260 257 255 254 253 253 253 254 258 262 264 264 264 263 262 257 251 248 247 248 249 250 250 251 254 254 253 254 257 259 259 259 256 252 248 248 249 252 255 257 259 258 257 257 255 254 254 256 258 260 260 261 263 265 266 266 267 268 270 271 273
269 266 264 262 260 259 258 256 255 254 253 251 251 251 252 252 253 255 259 261 262 260 260 261 261 259 257 256 256 256 256 256 258 262 263 263 264 265 263 259 254 247 247 251 253 253 253 251 253 255 254 254 256 258 262 264 263 258 250 247 246 248 252 255 256 256 256 257 256 254 253 253 255 256 257 257 259 261 263 264 265 266 268 270 272
270 266 263 261 260 258 257 256 255 255 255 254 253 252 252 253 254 256 257 259 260 259 260 262 263 263 260 257 256 256 256 257 258 260 261 261 262 264 264 259 252 244 243 252 255 252 251 251 252 256 256 254 255 256 258 263 266 265 257 249 246 246 248 252 255 255 255 255 255 254 253 252 253 253 254 254 255 257 259 260 261 263 266 269 270
273 269 265 262 259 257 255 254 254 254 255 255 255 255 255 256 257 259 260 261 260 260 260 258 256 260 262 260 258 257 255 254 256 258 258 259 260 264 265 259 253 247 246 253 256 251 249 250 253 257 258 256 257 256 254 257 261 263 258 250 246 245 247 252 255 256 256 255 252 251 250 251 252 253 253 254 255 257 258 259 260 262 265 266 267
277 271 267 263 258 255 254 252 252 252 253 255 256 257 258 259 259 261 263 263 262 263 263 259 257 260 264 264 262 259 256 253 253 256 257 258 260 263 264 262 257 255 253 254 257 255 252 250 252 258 261 259 257 255 254 257 258 258 257 251 245 243 245 249 253 256 258 257 255 253 251 250 251 252 253 254 255 256 258 260 262 264 264 264 265
279 272 267 264 260 257 254 252 251 250 250 252 254 256 257 258 259 259 261 262 261 262 263 264 265 266 265 263 262 261 259 257 256 257 258 257 257 258 261 263 261 258 257 257 258 257 255 254 255 259 262 260 258 257 258 262 261 259 259 252 244 243 244 247 251 255 258 259 259 257 254 250 250 251 253 255 256 257 259 261 263 264 263 263 264
278 273 266 263 260 258 254 252 249 247 247 248 250 253 255 257 258 258 259 260 261 260 261 263 266 267 267 265 262 261 260 260 260 260 259 257 256 256 257 259 261 261 260 260 259 256 255 256 257 258 259 257 257 259 261 263 263 262 258 250 244 243 243 246 250 254 258 261 260 259 257 254 253 254 255 256 256 256 257 258 259 260 261 261 261
275 271 267 261 257 254 251 248 247 245 244 243 244 247 250 252 254 256 258 258 259 261 261 263 264 265 268 269 266 264 264 263 262 261 260 258 257 258 257 256 258 261 262 261 258 254 254 256 256 253 251 250 251 256 260 261 261 261 258 254 249 246 245 246 247 250 255 257 258 260 259 256 256 257 256 255 255 255 257 258 258 259 260 261 261
277 271 267 263 258 253 248 244 242 242 241 240 240 242 244 246 249 251 254 256 258 259 260 262 263 264 268 271 271 270 269 267 264 261 260 259 258 258 258 257 257 259 260 260 258 254 251 252 254 253 250 248 248 254 258 258 257 255 254 256 256 251 249 247 245 247 250 251 252 256 258 258 256 256 255 255 255 254 255 258 260 260 260 261 262
282 273 266 263 260 255 250 244 242 241 241 239 238 239 241 243 246 250 253 255 257 259 260 261 261 262 264 268 270 271 271 269 267 265 262 261 260 259 258 258 257 257 258 259 258 256 253 251 251 253 254 252 251 255 258 257 255 250 244 247 250 251 250 248 246 247 249 250 250 251 255 256 255 255 256 256 256 255 255 257 260 261 261 262 263
285 274 266 262 261 258 253 248 244 243 244 244 243 242 242 243 245 249 253 256 259 261 263 265 266 266 266 266 267 268 269 269 269 268 267 265 264 263 262 261 259 256 256 257 256 254 254 254 253 253 253 253 255 259 260 258 256 251 245 243 246 250 251 254 255 254 253 253 252 251 252 254 255 257 258 258 259 258 256 256 257 258 259 260 261
288 278 268 263 262 260 257 253 248 246 246 248 250 250 250 249 249 250 252 254 258 261 265 268 271 272 272 271 270 269 268 269 269 268 268 267 265 264 263 263 261 258 256 255 254 255 255 256 257 256 256 257 261 264 263 261 259 257 255 253 253 254 255 258 260 261 259 258 257 255 254 255 257 259 260 261 263 262 259 258 257 256 256 256 257
291 284 272 265 263 262 261 258 254 251 249 249 251 254 256 257 257 256 256 257 258 260 263 265 269 272 274 274 273 271 270 270 271 270 269 268 265 263 262 262 262 262 261 259 257 258 259 258 258 258 259 261 263 264 262 259 257 257 257 257 257 257 257 258 259 261 262 263 264 262 260 258 259 261 262 262 263 261 258 257 257 256 256 255 257
293 289 277 267 264 262 261 260 258 256 254 253 254 255 257 260 261 262 262 263 263 264 265 265 266 268 269 270 271 271 270 270 270 271 271 270 268 266 264 263 264 266 266 266 263 261 261 261 260 259 260 261 262 262 260 258 257 256 256 257 257 258 258 259 259 261 262 263 262 261 260 259 258 258 259 261 262 260 256 255 255 255 256 257 259
292 291 281 272 266 262 261 260 259 257 256 256 257 258 260 261 263 264 265 266 267 268 269 269 269 270 269 269 269 269 269 269 269 270 270 270 270 270 268 267 267 269 270 270 268 265 263 262 262 261 261 261 262 261 260 259 258 258 258 258 258 257 257 258 259 259 260 259 258 256 256 256 255 256 258 260 262 261 257 255 255 256 257 258 259
291 290 284 277 271 266 264 263 262 261 260 259 260 260 262 263 264 266 267 268 269 269 270 271 272 272 271 270 270 270 271 271 272 272 271 271 271 272 272 271 270 271 271 271 270 268 266 264 263 263 263 262 262 262 261 259 258 258 259 259 259 257 257 257 257 257 257 257 256 255 255 256 258 260 262 264 266 266 262 259 258 258 259 261 261
287 287 284 281 278 275 271 268 264 262 261 262 263 264 265 266 266 267 268 270 272 273 274 274 274 274 274 274 274 274 274 275 277 277 277 276 275 275 275 275 274 272 272 271 271 270 269 267 265 264 265 264 263 263 262 262 260 259 259 259 259 259 258 257 257 256 255 255 255 255 255 257 259 262 264 267 270 271 270 267 265 264 264 265 264
280 279 278 280 282 281 275 268 263 260 259 259 262 266 267 267 266 266 268 269 272 275 277 278 280 281 281 281 280 279 280 280 281 282 282 280 279 278 278 278 277 276 274 273 272 272 271 271 269 267 266 267 266 265 264 264 263 262 261 260 260 260 260 259 258 257 255 255 255 255 256 257 258 260 261 264 267 269 270 269 269 268 267 267 266
276 270 269 274 280 278 270 264 261 258 257 255 256 260 263 265 266 266 265 267 269 274 278 282 284 286 288 289 289 288 286 285 285 285 285 285 284 284 283 283 282 281 279 276 275 273 272 272 272 271 269 269 269 268 266 265 265 264 264 263 263 262 262 261 260 260 259 258 258 258 258 258 259 260 261 262 263 265 267 268 269 269 269 267 266
275 266 260 270 284 281 269 262 260 258 256 254 252 253 257 260 262 261 262 264 267 272 277 283 286 288 291 292 293 293 293 291 289 287 286 285 286 286 287 286 286 285 283 280 277 274 271 270 270 270 270 270 271 271 270 269 267 267 267 267 266 265 265 264 263 262 262 262 262 263 263 263 263 263 263 263 264 264 266 267 269 269 269 267 266
272 262 261 274 286 283 274 271 267 263 260 255 251 249 250 253 253 255 259 263 265 268 272 278 283 287 291 292 293 294 294 295 294 292 289 287 285 284 284 284 284 284 283 282 279 276 272 270 268 267 267 268 269 270 271 272 271 270 269 270 271 270 270 269 268 268 267 266 266 266 268 269 269 269 269 268 268 268 269 269 270 270 269 268 268
271 267 269 277 280 274 271 272 270 267 266 265 261 256 254 253 252 255 260 264 266 268 272 277 279 281 284 288 290 290 290 291 291 291 290 290 288 286 284 283 282 281 281 280 279 277 273 270 268 267 266 265 266 267 268 270 271 271 270 270 271 272 273 273 273 272 272 270 270 269 269 270 271 272 273 273 273 272 272 271 271 271 270 270 269
270 272 273 276 276 271 268 269 270 270 269 267 266 266 265 262 259 260 263 264 265 268 273 276 276 277 279 280 281 281 282 283 284 284 284 285 286 286 286 285 283 282 281 280 279 278 276 273 271 268 266 264 264 264 265 266 266 268 269 269 269 269 271 272 274 275 275 274 274 273 273 273 273 273 274 274 275 274 274 274 273 272 272 272 272
263 273 274 274 278 278 273 272 275 275 273 269 267 267 268 266 264 265 265 264 264 267 272 274 272 273 276 277 278 278 277 277 277 279 279 279 280 281 283 283 283 282 281 280 279 279 278 276 274 272 270 268 266 264 264 264 264 265 265 266 266 267 268 268 269 270 272 274 275 276 276 277 277 277 277 277 277 277 277 276 275 275 274 274 273
259 272 276 277 281 280 274 273 275 275 273 271 268 265 264 264 267 268 266 266 265 266 271 276 275 273 273 275 277 278 278 276 275 275 275 276 277 278 279 279 280 280 279 279 278 277 276 275 274 273 272 270 268 266 264 264 264 264 265 265 264 263 264 265 266 265 266 267 269 271 273 275 276 276 277 278 278 278 278 278 278 278 277 276 275
271 275 277 276 275 273 271 271 271 269 267 266 264 260 258 260 269 273 272 269 267 266 265 267 272 274 273 273 273 274 276 276 274 272 271 271 272 274 275 276 277 277 276 276 275 274 274 273 273 273 271 270 269 268 266 264 262 262 263 264 264 264 262 261 262 263 263 263 264 265 266 268 270 271 272 274 274 275 276 277 278 278 278 278 277
278 278 276 272 269 269 267 264 263 264 266 267 264 258 256 263 272 276 275 272 270 269 266 264 267 271 273 274 274 274 273 273 272 270 268 266 265 267 269 271 273 273 273 273 272 271 270 270 270 271 270 269 268 267 266 265 263 262 260 260 262 263 264 263 261 260 260 261 262 263 264 265 267 269 270 271 271 272 273 274 274 275 275 276 276
276 276 271 266 269 272 268 264 264 267 268 268 266 260 260 267 274 275 272 270 268 268 267 266 267 270 272 275 276 276 273 272 271 270 268 266 262 262 263 265 267 269 270 270 270 269 269 269 269 269 268 268 267 266 265 264 263 262 261 260 259 259 261 264 265 263 262 261 262 263 265 265 267 269 270 271 271 272 272 272 272 272 272 272 272
271 269 260 260 268 272 270 266 266 268 269 270 268 264 263 267 274 278 274 269 266 266 267 267 268 269 270 270 269 270 270 270 271 271 270 268 265 264 264 264 265 266 267 267 267 267 267 268 268 268 267 266 266 266 265 264 263 263 262 262 262 261 260 261 263 264 264 263 263 265 267 267 268 270 271 273 273 273 272 272 271 271 271 271 271
266 261 257 262 268 269 267 265 264 266 270 272 270 268 268 271 277 280 277 272 271 271 271 271 271 271 270 267 266 266 268 269 270 270 270 269 268 267 267 266 266 266 266 265 264 264 264 265 265 266 265 265 264 264 264 263 263 263 262 262 262 262 263 262 263 265 265 264 264 265 267 268 269 269 271 272 273 273 273 272 271 271 270 270 270
263 260 261 266 268 266 264 263 263 266 269 270 269 270 272 275 276 275 275 276 278 278 278 277 277 276 275 273 271 270 270 270 270 270 270 270 269 268 267 266 266 266 265 264 262 262 261 261 261 262 263 263 263 262 262 262 262 263 263 262 262 261 262 262 262 264 265 265 264 265 266 268 269 269 270 271 272 272 272 271 271 270 270 270 269
265 266 266 266 266 265 264 263 265 269 271 272 271 271 271 271 270 270 273 277 279 279 280 280 280 280 279 278 276 274 273 272 272 271 271 270 269 269 268 268 268 267 266 265 263 262 260 260 260 260 260 260 261 261 261 261 262 262 263 263 263 262 261 261 261 261 263 263 263 263 265 267 268 269 270 271 271 270 270 270 269 269 269 269 269
268 269 269 268 266 264 265 267 269 271 272 271 270 268 267 267 268 271 274 276 277 278 279 280 281 282 281 279 277 275 274 273 273 272 272 272 272 271 271 270 270 269 269 268 266 265 263 262 262 261 260 260 261 262 262 262 262 263 263 264 264 264 263 263 262 262 262 262 261 261 264 266 268 269 270 269 269 269 269 269 268 268 268 269 269
268 268 268 268 266 263 263 266 268 269 270 269 268 268 269 270 271 274 276 277 278 279 280 282 284 284 282 279 277 275 274 273 273 273 272 273 273 273 273 272 272 271 271 270 270 269 268 267 266 265 264 264 265 265 265 265 265 265 265 265 265 265 264 264 264 264 263 264 263 263 264 266 267 268 268 267 267 267 267 267 267 267 267 267 268
268 268 267 266 264 263 263 265 268 270 271 270 269 269 271 272 273 275 278 280 282 282 283 285 286 285 283 280 277 275 273 272 272 272 272 272 272 273 273 273 273 272 272 272 272 271 270 269 269 269 269 270 270 270 269 268 268 267 267 267 266 266 265 264 264 264 265 265 266 265 265 265 266 266 266 265 265 265 265 266 266 266 266 266 266
268 268 268 268 267 267 268 269 270 271 271 270 270 271 273 274 274 276 279 282 284 285 286 287 287 286 284 281 279 276 274 273 272 272 272 272 272 272 273 273 273 273 273 273 273 272 271 270 270 270 270 270 271 271 271 271 270 269 269 268 268 267 267 266 265 265 265 266 267 266 266 266 266 265 264 264 264 264 264 265 265 265 265 266 266
270 271 271 272 272 272 272 272 272 271 270 270 271 272 274 275 276 277 280 283 285 286 286 286 285 284 284 283 281 279 277 276 274 274 273 273 273 273 273 274 274 274 275 275 275 274 274 273 272 271 271 270 270 270 270 270 270 269 269 269 268 268 268 267 266 266 266 266 267 267 266 266 266 266 265 264 263 262 263 263 264 265 265 265 266
269 270 271 272 272 272 271 270 270 269 269 269 270 271 273 274 276 278 282 284 285 285 284 283 282 282 282 281 280 280 279 278 277 276 276 275 275 275 275 275 275 276 276 277 277 277 277 276 275 274 273 272 271 270 270 269 269 269 268 268 268 267 267 267 267 266 266 266 267 267 267 266 266 266 266 265 263 262 262 263 263 264 264 265 265
Height
5799 5797 5797 5797 5798 5799 5798 5798 5797 5796 5798 5799 5799 5801 5802 5803 5803 5804 5804 5804 5805 5806 5807 5808 5809 5811 5812 5813 5814 5815 5816 5816 5817 5818 5818 5819 5819 5820 5822 5823 5824 5825 5825 5826 5827 5828 5829 5830 5831 5832 5833 5834 5835 5836 5837 5838 5838 5839 5840 5841 5842 5843 5843 5844 5845 5846 5847 5847 5848 5849 5849 5850 5850 5850 5851 5851 5852 5852 5853 5853 5853 5853 5853 5854 5854
5796 5795 5795 5796 5796 5797 5796 5795 5795 5795 5797 5797 5798 5800 5800 5801 5802 5802 5802 5802 5803 5804 5805 5805 5807 5808 5810 5811 5812 5812 5813 5814 5815 5815 5816 5817 5817 5818 5819 5821 5822 5823 5823 5824 5824 5825 5827 5828 5829 5830 5831 5832 5833 5834 5835 5836 5836 5837 5838 5839 5840 5841 5842 5842 5843 5844 5845 5846 5847 5847 5848 5848 5849 5849 5850 5850 5851 5851 5852 5852 5852 5852 5853 5853 5853
5793 5794 5795 5795 5795 5795 5793 5793 5793 5794 5795 5796 5797 5798 5798 5799 5799 5800 5800 5800 5800 5801 5802 5803 5804 5806 5807 5809 5810 5810 5810 5811 5812 5813 5813 5814 5815 5816 5817 5818 5819 5820 5821 5822 5822 5823 5824 5825 5826 5827 5828 5830 5831 5832 5833 5834 5834 5835 5837 5838 5838 5839 5840 5841 5842 5843 5844 5845 5845 5846 5847 5847 5847 5848 5848 5848 5849 5849 5850 5851 5851 5851 5851 5852 5852
5792 5793 5794 5794 5794 5793 5792 5792 5793 5794 5794 5794 5795 5796 5796 5797 5797 5798 5798 5798 5798 5799 5800 5801 5802 5804 5805 5806 5807 5808 5808 5809 5810 5811 5811 5812 5813 5814 5814 5815 5816 5817 5818 5819 5820 5821 5822 5823 5824 5825 5826 5827 5828 5829 5830 5832 5832 5833 5834 5836 5837 5837 5838 5839 5840 5841 5842 5843 5844 5845 5845 5846 5846 5846 5846 5847 5847 5848 5848 5849 5849 5850 5850 5850 5851
5792 5793 5794 5793 5793 5792 5791 5791 5793 5794 5794 5794 5794 5794 5795 5795 5796 5796 5796 5797 5797 5798 5798 5799 5800 5802 5803 5804 5805 5806 5806 5807 5808 5808 5809 5810 5811 5812 5812 5813 5814 5815 5815 5816 5817 5818 5819 5821 5822 5823 5824 5825 5826 5827 5828 5829 5830 5830 5832 5833 5834 5835 5836 5837 5838 5839 5840 5841 5842 5843 5844 5844 5844 5844 5844 5845 5845 5846 5846 5847 5847 5848 5848 5849 5849
5793 5793 5793 5792 5792 5792 5791 5791 5792 5792 5793 5793 5793 5793 5794 5794 5795 5795 5795 5796 5797 5797 5797 5797 5798 5799 5801 5802 5803 5803 5804 5805 5805 5806 5806 5807 5808 5809 5810 5811 5812 5812 5813 5813 5814 5815 5816 5817 5819 5820 5821 5822 5823 5824 5825 5826 5827 5828 5829 5830 5831 5832 5834 5835 5836 5837 5837 5838 5839 5840 5841 5842 5842 5842 5843 5843 5844 5844 5844 5845 5846 5846 5846 5847 5847
5792 5792 5791 5791 5791 5790 5790 5790 5790 5790 5790 5790 5791 5791 5792 5793 5793 5793 5793 5794 5795 5795 5796 5796 5797 5797 5798 5800 5800 5801 5802 5803 5803 5804 5804 5805 5806 5807 5808 5809 5810 5810 5811 5811 5812 5813 5813 5814 5815 5816 5818 5819 5820 5821 5822 5823 5824 5825 5826 5827 5828 5829 5831 5832 5833 5834 5835 5836 5836 5837 5838 5839 5840 5840 5841 5841 5842 5842 5842 5843 5843 5844 5844 5845 5845
5790 5790 5790 5790 5790 5789 5789 5789 5789 5788 5788 5788 5789 5789 5790 5791 5791 5792 5792 5793 5793 5793 5794 5795 5795 5796 5796 5797 5798 5799 5800 5800 5801 5801 5802 5802 5803 5804 5805 5806 5807 5808 5808 5809 5810 5810 5811 5812 5813 5813 5814 5816 5817 5818 5819 5820 5821 5822 5823 5824 5825 5826 5827 5829 5830 5831 5832 5832 5833 5834 5835 5836 5837 5838 5838 5839 5839 5840 5840 5841 5841 5842 5842 5843 5843
5788 5788 5788 5788 5788 5788 5788 5788 5788 5787 5787 5787 5788 5788 5788 5789 5790 5790 5791 5791 5791 5792 5792 5792 5793 5794 5794 5795 5796 5797 5797 5798 5799 5799 5800 5800 5801 5802 5803 5804 5804 5805 5806 5807 5807 5808 5809 5809 5810 5811 5811 5813 5814 5815 5816 5817 5818 5819 5820 5821 5822 5823 5824 5825 5826 5828 5828 5829 5830 5831 5832 5833 5834 5835 5836 5837 5837 5838 5838 5839 5840 5840 5840 5841 5841
5786 5787 5787 5787 5787 5787 5787 5787 5787 5787 5787 5787 5787 5787 5787 5788 5789 5789 5789 5789 5789 5790 5790 5790 5792 5793 5793 5793 5794 5795 5795 5796 5797 5797 5798 5798 5799 5800 5800 5801 5802 5802 5803 5804 5805 5806 5806 5807 5807 5808 5809 5810 5811 5812 5813 5814 5815 5816 5817 5818 5819 5820 5821 5822 5823 5824 5825 5826 5827 5828 5829 5830 5831 5832 5833 5834 5835 5835 5836 5837 5837 5838 5838 5839 5839
5784 5785 5785 5785 5785 5785 5786 5786 5786 5786 5786 5786 5786 5786 5787 5787 5787 5787 5787 5787 5788 5788 5788 5789 5790 5791 5791 5791 5792 5792 5793 5794 5795 5795 5796 5796 5797 5797 5798 5798 5799 5800 5801 5802 5802 5803 5804 5805 5805 5806 5806 5807 5808 5809 5810 5811 5812 5813 5814 5815 5816 5817 5818 5819 5820 5821 5822 5823 5824 5825 5826 5827 5828 5829 5830 5831 5832 5833 5833 5834 5835 5835 5836 5836 5837
5783 5783 5783 5784 5784 5784 5784 5784 5784 5784 5784 5785 5785 5785 5786 5786 5786 5786 5786 5786 5786 5786 5787 5787 5788 5788 5789 5790 5790 5791 5791 5792 5792 5793 5794 5794 5795 5795 5795 5796 5796 5797 5798 5799 5799 5800 5801 5802 5803 5803 5804 5804 5805 5806 5807 5808 5809 5810 5811 5812 5813 5814 5815 5816 5817 5818 5819 5820 5821 5822 5823 5824 5825 5826 5827 5828 5829 5830 5831 5831 5832 5832 5833 5833 5834
5781 5781 5782 5782 5782 5782 5782 5782 5783 5783 5783 5783 5784 5784 5784 5784 5784 5784 5784 5784 5785 5785 5786 5786 5786 5787 5787 5788 5789 5790 5790 5790 5790 5791 5791 5792 5793 5793 5793 5793 5794 5794 5795 5796 5797 5798 5799 5799 5799 5799 5799 5800 5801 5802 5803 5804 5806 5807 5808 5809 5810 5811 5812 5813 5814 5814 5815 5816 5817 5819 5820 5821 5822 5824 5825 5825 5826 5827 5828 5828 5829 5829 5830 5830 5830
5779 5779 5779 5780 5780 5780 5780 5780 5781 5781 5782 5782 5782 5782 5783 5783 5783 5783 5783 5783 5785 5784 5784 5784 5784 5785 5786 5786 5787 5788 5788 5789 5789 5789 5789 5790 5791 5791 5790 5791 5791 5792 5793 5793 5794 5796 5796 5796 5796 5795 5796 5796 5797 5798 5799 5801 5802 5803 5804 5805 5807 5808 5809 5810 5810 5810 5811 5812 5813 5815 5817 5818 5819 5820 5821 5822 5823 5824 5824 5825 5826 5826 5827 5827 5827
5777 5777 5777 5777 5778 5778 5778 5778 5779 5779 5780 5780 5780 5781 5781 5781 5781 5782 5782 5782 5783 5782 5781 5782 5782 5782 5784 5785 5785 5786 5787 5787 5787 5787 5788 5788 5789 5789 5788 5789 5789 5789 5791 5791 5792 5793 5793 5793 5794 5793 5794 5794 5794 5795 5796 5798 5798 5799 5800 5801 5803 5804 5806 5806 5806 5806 5808 5809 5811 5812 5814 5815 5816 5817 5817 5818 5819 5820 5821 5822 5822 5823 5823 5824 5824
5775 5775 5775 5775 5775 5776 5776 5777 5777 5778 5778 5778 5778 5779 5779 5779 5780 5780 5780 5781 5781 5780 5779 5780 5781 5781 5781 5782 5783 5784 5785 5785 5786 5786 5786 5787 5787 5787 5787 5787 5786 5787 5789 5788 5789 5790 5789 5790 5791 5791 5791 5791 5791 5792 5793 5795 5796 5796 5796 5797 5798 5801 5802 5803 5803 5804 5806 5807 5808 5810 5810 5811 5812 5813 5813 5814 5815 5816 5817 5818 5818 5819 5820 5820 5821
5773 5773 5773 5773 5773 5774 5774 5775 5775 5776 5776 5776 5776 5777 5777 5777 5778 5778 5778 5779 5779 5778 5777 5778 5780 5780 5780 5780 5782 5782 5783 5784 5784 5784 5784 5784 5785 5785 5785 5785 5785 5785 5786 5786 5786 5787 5787 5787 5788 5787 5787 5788 5789 5790 5790 5791 5793 5793 5793 5793 5795 5797 5799 5800 5801 5802 5803 5804 5805 5806 5806 5807 5808 5809 5810 5810 5811 5812 5813 5814 5815 5815 5816 5817 5818
5772 5771 5771 5771 5772 5772 5772 5772 5773 5773 5774 5774 5775 5775 5775 5775 5776 5776 5776 5777 5776 5776 5775 5775 5777 5778 5778 5779 5780 5780 5781 5782 5782 5782 5782 5783 5783 5783 5782 5782 5783 5783 5784 5784 5784 5784 5784 5785 5784 5784 5785 5784 5786 5786 5786 5787 5789 5789 5790 5790 5792 5794 5796 5797 5798 5799 5800 5800 5801 5802 5803 5803 5803 5804 5805 5807 5808 5809 5810 5811 5812 5812 5813 5813 5814
5770 5770 5770 5770 5770 5770 5770 5771 5771 5771 5772 5772 5772 5773 5773 5773 5774 5774 5774 5774 5774 5774 5774 5773 5774 5776 5776 5777 5777 5778 5778 5779 5780 5780 5781 5780 5780 5781 5780 5780 5781 5781 5781 5781 5781 5782 5782 5782 5782 5782 5782 5782 5783 5783 5783 5783 5785 5786 5786 5787 5789 5791 5792 5792 5793 5795 5797 5798 5798 5799 5799 5799 5799 5800 5802 5803 5805 5806 5807 5808 5808 5808 5809 5810 5811
5768 5768 5768 5768 5768 5768 5768 5769 5769 5770 5770 5770 5770 5770 5771 5771 5771 5772 5772 5773 5773 5773 5773 5772 5773 5773 5774 5774 5775 5775 5776 5777 5778 5778 5779 5778 5777 5778 5778 5778 5778 5778 5779 5779 5779 5780 5780 5780 5780 5780 5780 5780 5780 5781 5780 5781 5782 5783 5783 5784 5785 5787 5788 5789 5790 5791 5793 5795 5795 5795 5795 5795 5796 5797 5799 5800 5801 5803 5803 5803 5803 5804 5805 5806 5807
5767 5766 5766 5766 5766 5766 5766 5767 5767 5767 5768 5768 5768 5768 5768 5768 5769 5769 5770 5770 5770 5771 5771 5771 5771 5771 5771 5771 5772 5773 5773 5774 5775 5775 5776 5776 5775 5775 5775 5776 5776 5776 5776 5777 5777 5778 5778 5778 5778 5778 5777 5778 5778 5778 5778 5779 5780 5780 5780 5781 5782 5784 5785 5786 5787 5788 5789 5790 5791 5791 5790 5792 5793 5794 5795 5796 5797 5798 5799 5799 5800 5801 5801 5802 5803
5765 5765 5764 5764 5764 5764 5765 5765 5765 5765 5765 5766 5766 5766 5766 5766 5766 5767 5767 5768 5768 5768 5768 5769 5769 5769 5769 5769 5770 5770 5770 5770 5771 5772 5772 5773 5773 5773 5773 5774 5774 5773 5773 5774 5775 5775 5775 5776 5775 5775 5776 5776 5776 5776 5776 5777 5777 5777 5778 5779 5780 5780 5781 5782 5784 5784 5784 5785 5786 5786 5786 5788 5789 5789 5791 5792 5793 5794 5795 5795 5796 5797 5798 5799 5800
5763 5763 5762 5762 5762 5762 5763 5763 5763 5763 5763 5763 5763 5763 5763 5763 5764 5764 5765 5765 5766 5766 5766 5766 5766 5767 5767 5767 5767 5767 5767 5767 5767 5768 5769 5770 5770 5771 5771 5771 5771 5771 5771 5772 5772 5773 5773 5773 5774 5774 5774 5774 5774 5774 5774 5775 5775 5776 5776 5776 5776 5777 5777 5778 5779 5780 5780 5781 5782 5782 5782 5783 5784 5785 5787 5788 5788 5789 5791 5793 5793 5794 5795 5795 5796
5761 5761 5760 5760 5760 5760 5760 5761 5761 5761 5761 5761 5761 5761 5761 5761 5761 5762 5762 5762 5763 5763 5763 5764 5764 5764 5765 5765 5765 5765 5765 5765 5765 5766 5767 5767 5768 5768 5768 5768 5768 5769 5769 5770 5770 5770 5771 5771 5772 5772 5772 5772 5772 5773 5773 5773 5773 5774 5774 5774 5774 5774 5775 5775 5775 5776 5777 5777 5777 5779 5779 5778 5779 5781 5783 5783 5784 5786 5788 5789 5789 5789 5790 5791 5792
5759 5759 5759 5758 5758 5758 5758 5759 5759 5759 5759 5759 5759 5759 5759 5759 5759 5759 5760 5760 5760 5760 5761 5761 5761 5762 5762 5763 5763 5763 5763 5763 5763 5764 5764 5764 5765 5765 5765 5765 5765 5766 5767 5767 5767 5768 5768 5769 5769 5769 5769 5770 5770 5771 5771 5771 5771 5771 5771 5772 5772 5772 5773 5773 5773 5772 5772 5772 5773 5775 5775 5775 5776 5778 5779 5779 5780 5782 5783 5784 5784 5784 5785 5786 5787
5757 5757 5757 5757 5757 5757 5757 5757 5757 5757 5757 5757 5757 5757 5757 5757 5757 5757 5758 5758 5758 5758 5758 5758 5758 5759 5759 5760 5760 5761 5761 5760 5761 5761 5761 5761 5762 5762 5763 5763 5763 5763 5764 5764 5765 5765 5765 5766 5766 5766 5766 5767 5767 5768 5768 5768 5768 5768 5768 5768 5769 5770 5770 5770 5769 5769 5768 5769 5769 5770 5771 5772 5772 5773 5774 5775 5776 5777 5778 5779 5779 5780 5781 5782 5783
5755 5755 5755 5755 5755 5755 5755 5755 5755 5755 5755 5755 5755 5755 5755 5755 5755 5756 5756 5756 5756 5756 5756 5756 5756 5756 5757 5757 5758 5758 5758 5758 5758 5758 5758 5759 5759 5760 5760 5760 5760 5761 5761 5762 5762 5762 5762 5762 5763 5763 5763 5763 5763 5764 5764 5765 5764 5764 5764 5765 5765 5766 5766 5766 5766 5766 5766 5766 5766 5767 5767 5768 5769 5770 5770 5771 5771 5772 5773 5774 5775 5775 5776 5777 5778
5753 5754 5754 5754 5754 5754 5753 5753 5753 5753 5753 5753 5753 5753 5754 5754 5754 5754 5754 5755 5755 5755 5755 5755 5755 5755 5755 5755 5755 5756 5756 5756 5756 5756 5756 5757 5757 5758 5758 5758 5758 5758 5759 5759 5759 5759 5759 5759 5759 5759 5759 5759 5759 5760 5760 5761 5761 5760 5760 5761 5761 5762 5762 5762 5762 5762 5762 5763 5763 5764 5764 5765 5766 5766 5766 5766 5767 5768 5768 5769 5770 5770 5771 5772 5773
5751 5752 5752 5753 5752 5752 5752 5752 5751 5751 5751 5751 5751 5752 5752 5752 5752 5753 5753 5753 5753 5753 5754 5754 5754 5754 5754 5754 5754 5754 5754 5754 5754 5754 5754 5755 5755 5755 5755 5756 5756 5756 5756 5756 5756 5756 5756 5756 5756 5756 5756 5756 5756 5757 5757 5757 5757 5757 5757 5757 5757 5758 5758 5758 5759 5759 5759 5760 5760 5761 5761 5762 5762 5762 5762 5762 5762 5763 5764 5764 5765 5766 5766 5767 5769
5750 5750 5751 5751 5751 5751 5750 5750 5750 5750 5750 5750 5750 5750 5750 5751 5751 5751 5751 5752 5752 5752 5752 5752 5752 5752 5752 5752 5752 5752 5752 5752 5752 5752 5752 5753 5753 5753 5753 5753 5753 5753 5754 5754 5753 5753 5753 5753 5753 5754 5753 5753 5754 5754 5754 5754 5754 5754 5754 5754 5754 5754 5755 5755 5756 5756 5756 5757 5757 5758 5758 5759 5759 5759 5759 5759 5759 5759 5760 5761 5761 5762 5763 5763 5764
5747 5748 5748 5749 5749 5749 5748 5748 5748 5748 5748 5747 5748 5748 5748 5749 5749 5749 5750 5750 5750 5750 5750 5750 5750 5750 5750 5750 5750 5750 5751 5751 5751 5750 5750 5750 5751 5751 5751 5751 5751 5751 5751 5751 5751 5751 5750 5750 5751 5751 5751 5751 5751 5751 5751 5751 5752 5752 5752 5752 5752 5752 5752 5752 5753 5753 5753 5754 5754 5754 5755 5756 5756 5756 5756 5756 5756 5756 5757 5757 5758 5758 5759 5759 5760
5744 5745 5745 5746 5746 5746 5746 5746 5745 5745 5745 5745 5745 5745 5746 5747 5747 5748 5748 5748 5748 5748 5748 5748 5748 5748 5748 5748 5749 5749 5749 5749 5749 5749 5748 5748 5748 5748 5748 5749 5749 5749 5749 5749 5749 5749 5749 5748 5748 5748 5749 5749 5749 5749 5749 5749 5749 5749 5750 5750 5749 5749 5749 5750 5750 5750 5751 5751 5751 5751 5752 5752 5752 5753 5753 5753 5753 5753 5753 5754 5754 5754 5754 5755 5755
5741 5742 5742 5743 5743 5743 5743 5743 5743 5743 5743 5743 5743 5743 5744 5744 5745 5746 5746 5746 5746 5747 5747 5747 5747 5747 5747 5747 5747 5747 5747 5747 5747 5747 5746 5746 5746 5746 5746 5746 5746 5747 5747 5747 5747 5747 5747 5747 5747 5747 5747 5747 5746 5747 5747 5747 5747 5747 5747 5747 5747 5747 5747 5747 5748 5748 5748 5749 5749 5749 5749 5749 5749 5749 5750 5750 5750 5750 5750 5751 5751 5751 5751 5751 5752
5739 5740 5740 5741 5741 5741 5741 5741 5741 5742 5741 5741 5741 5741 5741 5742 5743 5743 5744 5744 5745 5745 5745 5745 5745 5745 5745 5745 5745 5745 5745 5745 5745 5745 5744 5744 5744 5744 5744 5744 5744 5744 5744 5745 5745 5745 5745 5745 5745 5745 5745 5745 5745 5744 5744 5744 5745 5745 5745 5745 5745 5744 5745 5745 5745 5746 5746 5746 5746 5746 5746 5746 5746 5746 5747 5747 5747 5748 5748 5748 5748 5748 5749 5749 5749
5737 5738 5738 5738 5739 5738 5738 5738 5739 5739 5740 5740 5740 5740 5740 5740 5740 5741 5741 5742 5743 5743 5743 5743 5743 5743 5743 5743 5743 5743 5743 5743 5742 5742 5742 5742 5742 5742 5742 5742 5742 5742 5742 5742 5742 5743 5743 5743 5743 5743 5743 5743 5743 5742 5742 5742 5742 5742 5742 5742 5742 5741 5741 5742 5742 5743 5743 5743 5743 5744 5744 5744 5744 5744 5744 5744 5744 5744 5745 5745 5745 5746 5746 5746 5746
5735 5735 5735 5736 5736 5736 5735 5735 5735 5736 5736 5737 5738 5738 5738 5738 5738 5739 5739 5739 5740 5741 5741 5741 5741 5741 5741 5741 5741 5741 5741 5741 5740 5740 5740 5740 5740 5740 5739 5739 5739 5739 5739 5740 5740 5740 5740 5741 5741 5741 5741 5741 5741 5740 5740 5740 5740 5740 5739 5739 5739 5739 5739 5738 5738 5739 5739 5739 5740 5740 5740 5741 5741 5741 5741 5741 5741 5741 5741 5742 5742 5742 5742 5743 5743
5733 5733 5733 5733 5733 5733 5733 5733 5732 5732 5733 5733 5734 5734 5735 5735 5736 5736 5736 5737 5737 5738 5738 5738 5738 5738 5738 5738 5738 5738 5738 5738 5738 5738 5737 5737 5737 5737 5737 5737 5737 5737 5737 5737 5737 5737 5737 5737 5738 5738 5738 5738 5738 5738 5738 5737 5737 5737 5737 5737 5736 5736 5736 5735 5736 5736 5736 5736 5736 5736 5736 5737 5737 5737 5737 5737 5737 5737 5738 5738 5738 5738 5738 5738 5739
5730 5731 5730 5730 5731 5730 5730 5730 5730 5730 5730 5730 5731 5731 5731 5732 5732 5732 5733 5733 5734 5736 5736 5736 5735 5735 5735 5735 5735 5735 5735 5735 5735 5735 5735 5735 5734 5734 5734 5734 5734 5734 5734 5734 5734 5734 5734 5734 5734 5734 5734 5734 5735 5735 5735 5735 5734 5734 5734 5733 5733 5733 5733 5732 5732 5732 5733 5733 5733 5733 5733 5733 5733 5733 5733 5733 5733 5733 5733 5733 5734 5734 5734 5734 5734
5727 5727 5727 5727 5727 5727 5726 5726 5727 5727 5727 5728 5728 5728 5728 5728 5728 5729 5729 5730 5731 5732 5733 5733 5732 5731 5732 5732 5732 5732 5733 5732 5732 5732 5732 5732 5732 5731 5731 5731 5731 5731 5731 5731 5731 5731 5731 5731 5730 5730 5730 5731 5731 5731 5731 5731 5731 5731 5730 5730 5729 5729 5729 5728 5728 5728 5728 5729 5729 5729 5729 5729 5729 5729 5729 5729 5729 5730 5729 5729 5730 5729 5729 5730 5730
5723 5723 5723 5723 5722 5723 5723 5723 5723 5724 5724 5725 5725 5725 5725 5724 5725 5725 5726 5726 5726 5727 5728 5728 5728 5728 5728 5728 5728 5729 5729 5729 5728 5728 5729 5729 5728 5728 5728 5728 5728 5727 5727 5727 5727 5727 5727 5727 5727 5727 5727 5726 5727 5727 5727 5727 5727 5727 5727 5726 5726 5725 5724 5724 5724 5724 5724 5724 5724 5725 5724 5725 5725 5725 5725 5725 5725 5726 5726 5726 5726 5725 5725 5726 5726
5719 5718 5718 5718 5719 5719 5720 5720 5720 5720 5720 5721 5721 5721 5721 5721 5721 5722 5722 5722 5722 5722 5722 5723 5723 5723 5724 5724 5724 5724 5724 5724 5723 5724 5724 5724 5724 5724 5724 5724 5724 5724 5723 5723 5723 5723 5722 5722 5722 5723 5722 5722 5722 5722 5722 5722 5722 5722 5722 5722 5722 5721 5721 5720 5719 5719 5719 5719 5720 5720 5719 5719 5720 5720 5720 5720 5720 5721 5721 5721 5721 5721 5721 5721 5721
5715 5714 5714 5714 5715 5716 5716 5716 5717 5716 5715 5716 5716 5717 5717 5717 5718 5718 5718 5718 5718 5718 5717 5717 5718 5718 5719 5720 5719 5718 5718 5718 5718 5718 5719 5719 5719 5719 5720 5720 5719 5719 5719 5719 5718 5718 5718 5718 5718 5718 5717 5717 5717 5717 5717 5717 5717 5717 5717 5717 5717 5717 5717 5716 5715 5714 5713 5714 5715 5715 5714 5713 5714 5715 5714 5714 5714 5715 5715 5715 5715 5715 5715 5716 5716
5710 5710 5710 5710 5711 5711 5712 5712 5713 5712 5711 5712 5712 5712 5713 5713 5713 5713 5712 5712 5713 5712 5712 5712 5712 5712 5713 5714 5713 5713 5713 5713 5713 5713 5713 5713 5713 5713 5714 5714 5714 5714 5714 5713 5713 5713 5713 5712 5712 5712 5712 5711 5711 5712 5711 5711 5711 5711 5711 5711 5711 5711 5711 5711 5711 5709 5708 5708 5710 5710 5708 5707 5707 5709 5709 5708 5708 5708 5709 5709 5709 5708 5709 5709 5709
5705 5706 5706 5706 5706 5707 5707 5707 5707 5707 5707 5708 5708 5708 5708 5708 5709 5708 5707 5707 5707 5707 5707 5707 5707 5707 5707 5708 5708 5708 5707 5707 5707 5707 5707 5707 5707 5707 5707 5707 5707 5707 5707 5707 5707 5707 5707 5706 5706 5706 5705 5705 5705 5705 5705 5705 5705 5705 5705 5705 5705 5705 5705 5705 5705 5704 5702 5702 5703 5704 5703 5701 5700 5702 5702 5701 5701 5701 5701 5701 5701 5701 5701 5702 5702
5699 5700 5700 5701 5701 5701 5701 5701 5701 5701 5701 5702 5702 5703 5703 5703 5703 5703 5703 5703 5702 5702 5702 5702 5702 5702 5702 5702 5702 5702 5702 5701 5701 5700 5700 5700 5700 5700 5700 5700 5700 5700 5700 5700 5700 5700 5700 5700 5700 5699 5698 5698 5698 5698 5698 5698 5698 5698 5698 5697 5697 5698 5698 5698 5698 5697 5695 5695 5695 5697 5697 5695 5693 5695 5695 5694 5694 5694 5694 5694 5693 5693 5693 5693 5694
5692 5693 5694 5694 5695 5695 5695 5695 5695 5695 5696 5696 5697 5697 5698 5698 5698 5698 5698 5698 5697 5697 5697 5697 5697 5697 5697 5697 5696 5696 5696 5695 5695 5694 5694 5693 5693 5693 5693 5693 5693 5693 5693 5693 5693 5693 5693 5693 5693 5692 5691 5691 5691 5690 5690 5690 5690 5690 5690 5690 5689 5690 5690 5690 5690 5689 5688 5687 5687 5688 5690 5688 5687 5688 5688 5686 5686 5686 5685 5685 5685 5684 5685 5685 5685
5686 5687 5688 5689 5689 5689 5689 5689 5690 5691 5691 5691 5691 5691 5691 5691 5691 5691 5691 5692 5692 5692 5692 5692 5692 5692 5692 5691 5691 5690 5690 5689 5689 5688 5688 5687 5686 5686 5686 5686 5686 5686 5686 5685 5685 5686 5686 5686 5684 5683 5683 5684 5683 5682 5682 5681 5681 5681 5681 5680 5680 5681 5681 5682 5681 5680 5679 5678 5678 5679 5681 5681 5679 5679 5680 5679 5678 5678 5677 5676 5676 5676 5676 5676 5676
5680 5681 5682 5683 5683 5684 5684 5684 5684 5685 5685 5685 5684 5684 5684 5684 5684 5685 5685 5685 5685 5686 5686 5686 5686 5686 5686 5685 5685 5684 5684 5683 5683 5682 5682 5681 5680 5680 5679 5679 5679 5678 5678 5678 5678 5678 5678 5677 5676 5676 5675 5675 5674 5674 5673 5672 5672 5672 5671 5671 5671 5671 5672 5672 5671 5670 5669 5668 5667 5668 5670 5672 5670 5670 5671 5670 5669 5670 5669 5667 5666 5666 5667 5667 5667
5674 5675 5675 5676 5676 5676 5676 5676 5677 5677 5677 5677 5677 5677 5677 5678 5678 5678 5679 5679 5679 5679 5679 5679 5679 5679 5679 5679 5679 5678 5678 5677 5676 5676 5675 5675 5674 5673 5673 5672 5672 5671 5671 5671 5671 5671 5670 5670 5669 5668 5668 5667 5666 5665 5664 5663 5663 5662 5662 5661 5661 5661 5661 5662 5662 5662 5661 5659 5658 5657 5659 5661 5660 5659 5661 5661 5661 5660 5659 5658 5657 5657 5657 5657 5657
5666 5667 5667 5667 5667 5667 5668 5668 5668 5669 5669 5669 5670 5670 5671 5671 5672 5672 5672 5673 5673 5673 5673 5672 5672 5672 5671 5671 5671 5671 5671 5670 5670 5669 5669 5668 5668 5667 5666 5665 5665 5664 5664 5664 5663 5663 5663 5662 5661 5661 5660 5659 5658 5656 5655 5654 5653 5653 5652 5652 5651 5651 5651 5651 5651 5651 5651 5651 5648 5646 5648 5650 5649 5648 5649 5651 5652 5651 5650 5649 5648 5648 5648 5648 5647
5659 5659 5659 5659 5659 5660 5660 5661 5661 5662 5663 5663 5663 5664 5664 5665 5666 5666 5666 5666 5666 5666 5666 5665 5665 5665 5664 5664 5664 5663 5663 5663 5663 5662 5662 5662 5661 5660 5659 5659 5658 5657 5657 5657 5656 5656 5655 5654 5653 5652 5651 5650 5649 5648 5646 5645 5644 5643 5643 5642 5642 5641 5641 5641 5640 5640 5641 5641 5639 5636 5638 5640 5639 5638 5638 5638 5640 5642 5641 5640 5640 5639 5638 5638 5638